Regional Weather Roundup
Issued by NWS State College, PA

Home | Current Version | Previous Version | Graphics & Text | Print | Product List | Glossary On
Versions: 1 2 3 4 5 6 7 8 9 10 11 12 13 14 15 16 17 18 19 20 21 22 23 24 25 26 27 28 29 30 31 32 33 34 35 36 37 38 39 40 41 42 43 44 45 46 47 48 49 50
000
ASUS41 KCTP 200810
RWRCTP

REGIONAL WEATHER ROUNDUP
NATIONAL WEATHER SERVICE STATE COLLEGE PA
400 AM EDT SAT SEP 20 2014

Note: "fair" indicates few or no clouds below 12,000 feet with no
significant weather and/or obstructions to visibility.

* = STATION THAT DOES NOT REPORT PRECIPITATION /E.G. RAIN...SNOW...ETC/
    THUNDER OR FOG.

PAZ002>004-007>009-013>016-020>023-029>032-200900-
WESTERN PENNSYLVANIA

CITY           SKY/WX    TMP DP  RH WIND       PRES   REMARKS
ERIE           PTCLDY    62  54  74 S16       30.06F
MEADVILLE      CLEAR     59  53  80 VRB6      30.11F
FRANKLIN*      CLEAR     57  52  82 S12       30.14F
NEW CASTLE     NOT AVBL
BEAVER COUNTY  NOT AVBL
BUTLER*        PTCLDY    57  52  82 SE5       30.16F
PITTSBURGH INT MOCLDY    59  54  83 SE5       30.13F
PITTSBURGH     PTCLDY    59  52  77 S9        30.14F
INDIANA*       MOCLDY    61  55  82 S9        30.21S
LATROBE        PTCLDY    64  55  72 S10       30.17S
WASHINGTON CO* PTCLDY    57  54  88 S3        30.15S
$$

PAZ004>006-010>012-017>019-024>028-033>037-041-042-045-046-049>053-200900-
CENTRAL PENNSYLVANIA

CITY           SKY/WX    TMP DP  RH WIND       PRES   REMARKS
BRADFORD       MOCLDY    57  53  86 S7        30.17S
DUBOIS         MOCLDY    57  54  89 SE7       30.17F
CLEARFIELD     CLOUDY    59  54  83 CALM      30.21F
JOHNSTOWN      PTCLDY    57  53  86 S13       30.21F
ALTOONA        CLOUDY    61  57  87 S8        30.23F
STATE COLLEGE  CLOUDY    62  56  81 S9        30.23S
WILLIAMSPORT   CLOUDY    61  54  77 S18G28    30.22F
SELINSGROVE    CLOUDY    61  55  81 S6        30.26F
FT INDIANTOWN  CLOUDY    58  57  99 E6        30.29F
CAPITAL CITY   CLOUDY    60  55  83 E6        30.27F
HARRISBURG     CLOUDY    60  54  80 E5        30.27F
YORK           MOCLDY    60  57  89 SE5       30.27F
$$

PAZ038>040-043-044-047-048-054-055-060>062-067>071-200900-
EASTERN PENNSYLVANIA

CITY           SKY/WX    TMP DP  RH WIND       PRES   REMARKS
SCRANTON       CLOUDY    58  52  80 N6        30.27F
MOUNT POCONO   CLOUDY    52  50  93 SE8       30.30F FOG
ALLENTOWN      CLOUDY    57  52  83 CALM      30.31S
QUAKERTOWN*    CLOUDY    55  54  94 CALM      30.31S
READING        CLOUDY    59  53  80 CALM      30.29S
LANCASTER      CLOUDY    55  53  93 NE5       30.28F FOG
COATESVILLE    PTSUNNY   55  55 100 CALM      30.30S FOG
POTTSTOWN      CLOUDY    56  53  90 CALM      30.31S
BLUE BELL        N/A     52  52 100 CALM      30.29S
DOYLESTOWN     CLOUDY    53  52  96 N3        30.30S
WILLOW GROVE   NOT AVBL
NORTH PHILA    PTCLDY    55  50  83 NE3       30.31S
PHILADELPHIA   CLOUDY    58  54  86 CALM      30.30S
$$


USA.gov is the U.S. government's official web portal to all federal, state and local government web resources and services.